This demonstration page uses our WeatherBlox Daily Observations layout. Learn more.

Left ArrowRight Arrow

Hourly Observations for December 26, 2016

Temp ( °F °C ) Dew Point ( °F °C ) Humidity (%) Winds ( mph kmh ) Pressure ( in mb ) Visibility ( mi km ) Precip ( " mm )
12:53 am 00:53 Cloudy 7 -13.9 1 -17.2 76 76 WSW 13 20 30.17 1022 10 16 0.00 0.00
1:53 am 01:53 Cloudy 8 -13.3 2 -16.7 76 76 WSW 9 15 30.17 1022 10 16 0.00 0.00
2:53 am 02:53 Cloudy 8 -13.3 2 -16.7 76 76 WSW 10 17 30.16 1021 10 16 0.00 0.00
3:53 am 03:53 Cloudy 8 -13.3 3 -16.1 80 80 W 9 15 30.15 1021 10 16 0.00 0.00
4:53 am 04:53 Clear 2 -16.7 -2 -18.9 83 83 WSW 8 13 30.14 1021 10 16 0.00 0.00
5:53 am 05:53 Clear -1 -18.3 -5 -20.6 82 82 SW 9 15 30.16 1021 10 16 0.00 0.00
6:53 am 06:53 Clear -4 -20 -7 -21.7 86 86 WSW 6 9 30.16 1021 10 16 0.00 0.00
7:53 am 07:53 Clear -4 -20 -7 -21.7 86 86 W 6 9 30.16 1021 10 16 0.00 0.00
8:53 am 08:53 Sunny -1 -18.3 -6 -21.1 79 79 WSW 8 13 30.16 1022 10 16 0.00 0.00
9:53 am 09:53 Sunny 1 -17.2 -4 -20 79 79 WSW 10 17 30.16 1022 10 16 0.00 0.00
10:53 am 10:53 Sunny 6 -14.4 0 -17.8 76 76 WSW 12 19 30.15 1021 10 16 0.00 0.00
11:53 am 11:53 Sunny 13 -10.6 5 -15 70 70 W 12 19 30.13 1020 10 16 0.00 0.00
12:53 pm 12:53 Sunny 18 -7.8 9 -12.8 68 68 W 14 22 30.11 1020 10 16 0.00 0.00
1:53 pm 13:53 Sunny 21 -6.1 12 -11.1 68 68 SW 18 30 30.09 1019 10 16 0.00 0.00
2:53 pm 14:53 Sunny 22 -5.6 14 -10 71 71 SW 20 31 30.08 1019 10 16 0.00 0.00
3:53 pm 15:53 Sunny 22 -5.6 14 -10 71 71 SW 18 30 30.09 1019 10 16 0.00 0.00
4:53 pm 16:53 Clear 19 -7.2 12 -11.1 74 74 SW 16 26 30.12 1020 10 16 0.00 0.00
5:53 pm 17:53 Clear 17 -8.3 10 -12.2 74 74 SW 14 22 30.14 1021 10 16 0.00 0.00
6:53 pm 18:53 Clear 18 -7.8 11 -11.7 74 74 SW 15 24 30.14 1021 10 16 0.00 0.00
7:53 pm 19:53 Clear 18 -7.8 11 -11.7 74 74 SW 17 28 30.12 1020 10 16 0.00 0.00
8:53 pm 20:53 Clear 18 -7.8 11 -11.7 74 74 SSW 17 28 30.10 1019 10 16 0.00 0.00
9:53 pm 21:53 Clear 20 -6.7 11 -11.7 68 68 SW 22 35 30.08 1019 10 16 0.00 0.00
10:53 pm 22:53 Clear 20 -6.7 12 -11.1 71 71 SW 22 35 30.05 1018 10 16 0.00 0.00
11:53 pm 23:53 Clear 22 -5.6 14 -10 71 71 SW 22 35 30.01 1016 10 16 0.00 0.00

Powered by AerisWeather